User: anonymous   Login
Location: Caltech
(34.1382°N, 118.1253°W)
Time: 09:54:49
(UTC-07:00)
Language:

SO-67 - Orbit

View from above orbital plane
View from above orbital plane
View from above satellite
View from above satellite

Ground track
Ground track

The orbit data is extracted from the following two-line orbital elements,

1 35870U 09049F   15241.07398606  .00011765  00000-0  26704-3 0  9999
2 35870 097.1353 255.8945 0001363 060.2221 025.0695 15.43192514331354
Epoch (UTC): 29 August 2015 01:46:32
Eccentricity: 0.0001363
inclination: 97.1353°
perigee height: 436 km
apogee height: 437 km
right ascension of ascending node: 255.8945°
argument of perigee: 60.2221°
revolutions per day: 15.43192514
mean anomaly at epoch: 25.0695°
orbit number at epoch: 33135

The dashed part of the orbit path shows where the satellite is in the earth's shadow,  

DLR